Location: Newark
(52.4787°S, 179.0532°W)
Time: 15:21:53
(UTC+00:00)

Transit 2A Rocket - Pass Details

Date: 29 November 2019
Orbit: 594 x 909 km, 66.7° (Epoch: 05 December)

Event Time Altitude Azimuth Distance (km) Brightness Sun altitude
Rises 21:27:12 0° 279° (W) 3,455 8.1 49.4°
Reaches altitude 10° 21:29:57 10° 268° (W) 2,557 7.5 49.7°
Maximum altitude 21:35:14 31° 207° (SSW) 1,549 6.6 50.3°
Drops below altitude 10° 21:40:40 10° 145° (SE) 2,629 7.9 51.0°
Sets 21:43:32 0° 134° (SE) 3,566 8.5 51.3°
